User: anonymous   Login
Location: Spring Creek
(38.2870°N, 100.2160°W)
Time: 18:21:26
(UTC+00:00)
Language:

Cosmos 1726 - Orbit

View from above orbital plane
View from above orbital plane
View from above satellite
View from above satellite

Ground track
Ground track

The orbit data is extracted from the following two-line orbital elements,

1 16495U 86006A   21210.85773879  .00001548  00000-0  58937-4 0  9999
2 16495  82.4734   0.5203 0011345 322.5983  37.4464 15.25917127945164
Epoch (UTC): 29 July 2021 20:35:08
Eccentricity: 0.0011345
inclination: 82.4734°
perigee height: 480 km
apogee height: 496 km
right ascension of ascending node: 0.5203°
argument of perigee: 322.5983°
revolutions per day: 15.25917127
mean anomaly at epoch: 37.4464°
orbit number at epoch: 94516

The dashed part of the orbit path shows where the satellite is in the earth's shadow,  

DLR